Time,TemperatureF,DewpointF,PressureIn,WindDirection,WindDirectionDegrees,WindSpeedMPH,WindSpeedGustMPH,Humidity,HourlyPrecipIn,Conditions,Clouds,dailyrainin,SoftwareType,DateUTC
2013-05-13 00:01:00,43.9,28.0,29.15,SW,225,7.0,10.0,51,0.00,,,0.00,Rainwise IP-100,2013-05-13 04:01:00,
2013-05-13 00:06:00,44.2,28.0,29.15,West,270,7.0,13.0,51,0.00,,,0.00,Rainwise IP-100,2013-05-13 04:06:00,
2013-05-13 00:11:00,44.3,28.0,29.15,WSW,247,8.0,15.0,51,0.00,,,0.00,Rainwise IP-100,2013-05-13 04:11:00,
2013-05-13 00:16:00,44.2,28.0,29.15,NW,315,7.0,13.0,52,0.00,,,0.00,Rainwise IP-100,2013-05-13 04:16:00,
2013-05-13 00:21:00,44.1,28.0,29.15,SW,225,5.0,16.0,53,0.00,,,0.00,Rainwise IP-100,2013-05-13 04:21:00,
2013-05-13 00:26:00,44.0,28.0,29.15,WSW,247,6.0,10.0,53,0.00,,,0.00,Rainwise IP-100,2013-05-13 04:26:00,
2013-05-13 00:32:00,43.9,28.0,29.15,West,270,7.0,10.0,53,0.00,,,0.00,Rainwise IP-100,2013-05-13 04:32:00,
2013-05-13 00:37:00,43.9,29.0,29.15,West,270,6.0,14.0,55,0.00,,,0.00,Rainwise IP-100,2013-05-13 04:37:00,
2013-05-13 00:42:00,43.5,29.0,29.15,WNW,292,6.0,13.0,56,0.00,,,0.00,Rainwise IP-100,2013-05-13 04:42:00,
2013-05-13 00:47:00,43.2,29.0,29.15,West,270,4.0,13.0,56,0.00,,,0.00,Rainwise IP-100,2013-05-13 04:47:00,
2013-05-13 00:52:00,43.2,29.0,29.15,WSW,247,7.0,15.0,57,0.00,,,0.00,Rainwise IP-100,2013-05-13 04:52:00,
2013-05-13 00:57:00,42.9,31.0,29.15,WSW,247,7.0,13.0,59,0.00,,,0.00,Rainwise IP-100,2013-05-13 04:57:00,
2013-05-13 01:00:00,42.9,31.0,29.15,WNW,292,6.0,13.0,59,0.00,,,0.00,Rainwise IP-100,2013-05-13 05:00:00,
2013-05-13 01:05:00,43.0,29.0,29.15,WNW,292,10.0,13.0,58,0.00,,,0.00,Rainwise IP-100,2013-05-13 05:05:00,
2013-05-13 01:10:00,42.9,29.0,29.15,West,270,5.0,13.0,58,0.00,,,0.00,Rainwise IP-100,2013-05-13 05:10:00,
2013-05-13 01:15:00,42.9,31.0,29.15,WSW,247,4.0,13.0,59,0.00,,,0.00,Rainwise IP-100,2013-05-13 05:15:00,
2013-05-13 01:21:00,42.6,31.0,29.15,West,270,6.0,15.0,59,0.00,,,0.00,Rainwise IP-100,2013-05-13 05:21:00,
2013-05-13 01:26:00,42.5,31.0,29.15,WSW,247,4.0,17.0,59,0.00,,,0.00,Rainwise IP-100,2013-05-13 05:26:00,
2013-05-13 01:31:00,42.3,29.0,29.15,WSW,247,6.0,15.0,59,0.00,,,0.00,Rainwise IP-100,2013-05-13 05:31:00,
2013-05-13 01:36:00,42.3,29.0,29.15,SW,225,12.0,16.0,59,0.00,,,0.00,Rainwise IP-100,2013-05-13 05:36:00,
2013-05-13 01:41:00,42.1,29.0,29.15,SW,225,6.0,14.0,60,0.00,,,0.00,Rainwise IP-100,2013-05-13 05:41:00,
2013-05-13 01:46:00,41.9,29.0,29.16,SW,225,7.0,16.0,61,0.00,,,0.00,Rainwise IP-100,2013-05-13 05:46:00,
2013-05-13 01:51:00,41.9,29.0,29.15,WSW,247,15.0,15.0,61,0.00,,,0.00,Rainwise IP-100,2013-05-13 05:51:00,
2013-05-13 01:57:00,41.8,29.0,29.16,SW,225,7.0,15.0,61,0.00,,,0.00,Rainwise IP-100,2013-05-13 05:57:00,
2013-05-13 02:02:00,41.9,29.0,29.16,SW,225,10.0,14.0,61,0.00,,,0.00,Rainwise IP-100,2013-05-13 06:02:00,
2013-05-13 02:07:00,41.8,29.0,29.15,WSW,247,16.0,16.0,61,0.00,,,0.00,Rainwise IP-100,2013-05-13 06:07:00,
2013-05-13 02:12:00,41.8,31.0,29.16,South,180,3.0,16.0,62,0.00,,,0.00,Rainwise IP-100,2013-05-13 06:12:00,
2013-05-13 02:17:00,41.5,31.0,29.16,WNW,292,5.0,13.0,63,0.00,,,0.00,Rainwise IP-100,2013-05-13 06:17:00,
2013-05-13 02:22:00,41.2,31.0,29.16,WSW,247,4.0,9.0,64,0.00,,,0.00,Rainwise IP-100,2013-05-13 06:22:00,
2013-05-13 02:27:00,41.4,29.0,29.17,WSW,247,13.0,15.0,63,0.00,,,0.00,Rainwise IP-100,2013-05-13 06:27:00,
2013-05-13 02:32:00,41.4,29.0,29.16,WSW,247,6.0,17.0,63,0.00,,,0.00,Rainwise IP-100,2013-05-13 06:32:00,
2013-05-13 02:38:00,41.2,31.0,29.16,NW,315,9.0,10.0,64,0.00,,,0.00,Rainwise IP-100,2013-05-13 06:38:00,
2013-05-13 02:43:00,40.9,29.0,29.16,SW,225,5.0,13.0,63,0.00,,,0.00,Rainwise IP-100,2013-05-13 06:43:00,
2013-05-13 02:48:00,40.6,31.0,29.16,West,270,5.0,8.0,64,0.00,,,0.00,Rainwise IP-100,2013-05-13 06:48:00,
2013-05-13 02:53:00,40.2,29.0,29.16,WSW,247,8.0,9.0,64,0.00,,,0.00,Rainwise IP-100,2013-05-13 06:53:00,
2013-05-13 02:58:00,40.6,29.0,29.16,SW,225,5.0,12.0,62,0.00,,,0.00,Rainwise IP-100,2013-05-13 06:58:00,
2013-05-13 03:03:00,40.8,29.0,29.16,SW,225,6.0,13.0,60,0.00,,,0.00,Rainwise IP-100,2013-05-13 07:03:00,
2013-05-13 03:08:00,40.9,29.0,29.16,West,270,6.0,15.0,60,0.00,,,0.00,Rainwise IP-100,2013-05-13 07:08:00,
2013-05-13 03:14:00,40.9,28.0,29.15,SSW,202,5.0,14.0,59,0.00,,,0.00,Rainwise IP-100,2013-05-13 07:14:00,
2013-05-13 03:19:00,40.9,29.0,29.16,WSW,247,12.0,13.0,60,0.00,,,0.00,Rainwise IP-100,2013-05-13 07:19:00,
2013-05-13 03:24:00,40.8,29.0,29.15,SW,225,3.0,13.0,60,0.00,,,0.00,Rainwise IP-100,2013-05-13 07:24:00,
2013-05-13 03:29:00,40.5,29.0,29.16,WSW,247,6.0,9.0,60,0.00,,,0.00,Rainwise IP-100,2013-05-13 07:29:00,
2013-05-13 03:34:00,40.3,28.0,29.16,South,180,7.0,11.0,60,0.00,,,0.00,Rainwise IP-100,2013-05-13 07:34:00,
2013-05-13 03:39:00,40.3,28.0,29.16,SW,225,15.0,15.0,60,0.00,,,0.00,Rainwise IP-100,2013-05-13 07:39:00,
2013-05-13 03:44:00,40.3,28.0,29.16,WSW,247,6.0,15.0,61,0.00,,,0.00,Rainwise IP-100,2013-05-13 07:44:00,
2013-05-13 03:49:00,40.3,28.0,29.16,SSW,202,4.0,13.0,59,0.00,,,0.00,Rainwise IP-100,2013-05-13 07:49:00,
2013-05-13 03:55:00,40.1,28.0,29.16,South,180,3.0,12.0,60,0.00,,,0.00,Rainwise IP-100,2013-05-13 07:55:00,
2013-05-13 04:00:00,39.8,28.0,29.16,NNW,337,6.0,10.0,60,0.00,,,0.00,Rainwise IP-100,2013-05-13 08:00:00,
2013-05-13 04:05:00,39.8,28.0,29.15,SW,225,10.0,11.0,60,0.00,,,0.00,Rainwise IP-100,2013-05-13 08:05:00,
2013-05-13 04:10:00,39.9,28.0,29.16,SW,225,4.0,15.0,60,0.00,,,0.00,Rainwise IP-100,2013-05-13 08:10:00,
2013-05-13 04:15:00,39.9,28.0,29.16,WSW,247,6.0,13.0,59,0.00,,,0.00,Rainwise IP-100,2013-05-13 08:15:00,
2013-05-13 04:20:00,40.1,28.0,29.15,SW,225,7.0,17.0,59,0.00,,,0.00,Rainwise IP-100,2013-05-13 08:20:00,
2013-05-13 04:25:00,39.8,28.0,29.16,WNW,292,4.0,12.0,60,0.00,,,0.00,Rainwise IP-100,2013-05-13 08:25:00,
2013-05-13 04:31:00,39.8,26.0,29.16,SW,225,11.0,12.0,57,0.00,,,0.00,Rainwise IP-100,2013-05-13 08:31:00,
2013-05-13 04:36:00,39.8,28.0,29.16,SW,225,8.0,14.0,59,0.00,,,0.00,Rainwise IP-100,2013-05-13 08:36:00,
2013-05-13 04:41:00,39.8,28.0,29.17,SW,225,6.0,10.0,58,0.00,,,0.00,Rainwise IP-100,2013-05-13 08:41:00,
2013-05-13 04:46:00,40.1,28.0,29.17,SW,225,9.0,17.0,59,0.00,,,0.00,Rainwise IP-100,2013-05-13 08:46:00,
2013-05-13 04:51:00,40.0,28.0,29.17,West,270,7.0,10.0,59,0.00,,,0.00,Rainwise IP-100,2013-05-13 08:51:00,
2013-05-13 04:56:00,39.9,28.0,29.17,WNW,292,2.0,9.0,60,0.00,,,0.00,Rainwise IP-100,2013-05-13 08:56:00,
2013-05-13 05:01:00,39.9,28.0,29.17,WSW,247,5.0,10.0,59,0.00,,,0.00,Rainwise IP-100,2013-05-13 09:01:00,
2013-05-13 05:06:00,39.9,28.0,29.17,WSW,247,2.0,7.0,60,0.00,,,0.00,Rainwise IP-100,2013-05-13 09:06:00,
2013-05-13 05:12:00,40.0,28.0,29.17,NW,315,1.0,7.0,59,0.00,,,0.00,Rainwise IP-100,2013-05-13 09:12:00,
2013-05-13 05:17:00,39.9,28.0,29.18,West,270,2.0,7.0,61,0.00,,,0.00,Rainwise IP-100,2013-05-13 09:17:00,
2013-05-13 05:22:00,39.8,29.0,29.17,NW,315,3.0,6.0,62,0.00,,,0.00,Rainwise IP-100,2013-05-13 09:22:00,
2013-05-13 05:27:00,39.3,28.0,29.18,NW,315,0.0,4.0,63,0.00,,,0.00,Rainwise IP-100,2013-05-13 09:27:00,
2013-05-13 05:32:00,38.9,28.0,29.18,NW,315,0.0,2.0,63,0.00,,,0.00,Rainwise IP-100,2013-05-13 09:32:00,
2013-05-13 05:37:00,38.9,29.0,29.18,West,270,1.0,7.0,65,0.00,,,0.00,Rainwise IP-100,2013-05-13 09:37:00,
2013-05-13 05:42:00,39.2,28.0,29.18,WNW,292,8.0,9.0,63,0.00,,,0.00,Rainwise IP-100,2013-05-13 09:42:00,
2013-05-13 05:48:00,39.6,29.0,29.18,WNW,292,4.0,10.0,64,0.00,,,0.00,Rainwise IP-100,2013-05-13 09:48:00,
2013-05-13 05:53:00,39.7,29.0,29.18,North,360,4.0,7.0,64,0.00,,,0.00,Rainwise IP-100,2013-05-13 09:53:00,
2013-05-13 05:58:00,39.9,28.0,29.18,WNW,292,6.0,10.0,61,0.00,,,0.00,Rainwise IP-100,2013-05-13 09:58:00,
2013-05-13 06:03:00,40.1,29.0,29.18,WSW,247,6.0,10.0,63,0.00,,,0.00,Rainwise IP-100,2013-05-13 10:03:00,
2013-05-13 06:08:00,40.2,28.0,29.18,WSW,247,8.0,8.0,61,0.00,,,0.00,Rainwise IP-100,2013-05-13 10:08:00,
2013-05-13 06:13:00,40.5,29.0,29.18,WNW,292,3.0,13.0,60,0.00,,,0.00,Rainwise IP-100,2013-05-13 10:13:00,
2013-05-13 06:18:00,40.7,29.0,29.19,WSW,247,8.0,19.0,60,0.00,,,0.00,Rainwise IP-100,2013-05-13 10:18:00,
2013-05-13 06:23:00,40.7,28.0,29.19,WSW,247,7.0,11.0,59,0.00,,,0.00,Rainwise IP-100,2013-05-13 10:23:00,
2013-05-13 06:29:00,40.8,28.0,29.19,SW,225,7.0,16.0,59,0.00,,,0.00,Rainwise IP-100,2013-05-13 10:29:00,
2013-05-13 06:34:00,41.1,28.0,29.19,WSW,247,9.0,13.0,58,0.00,,,0.00,Rainwise IP-100,2013-05-13 10:34:00,
2013-05-13 06:39:00,41.2,28.0,29.20,SW,225,7.0,12.0,58,0.00,,,0.00,Rainwise IP-100,2013-05-13 10:39:00,
2013-05-13 06:44:00,41.2,28.0,29.20,West,270,12.0,12.0,59,0.00,,,0.00,Rainwise IP-100,2013-05-13 10:44:00,
2013-05-13 06:46:00,40.9,28.0,29.20,SW,225,8.0,17.0,57,0.00,,,0.00,Rainwise IP-100,2013-05-13 10:46:00,
2013-05-13 06:51:00,41.0,28.0,29.20,WSW,247,9.0,17.0,58,0.00,,,0.00,Rainwise IP-100,2013-05-13 10:51:00,
2013-05-13 06:57:00,41.0,28.0,29.20,West,270,6.0,15.0,59,0.00,,,0.00,Rainwise IP-100,2013-05-13 10:57:00,
2013-05-13 07:02:00,40.9,28.0,29.19,NW,315,3.0,14.0,59,0.00,,,0.00,Rainwise IP-100,2013-05-13 11:02:00,
2013-05-13 07:07:00,40.9,28.0,29.20,SW,225,10.0,15.0,59,0.00,,,0.00,Rainwise IP-100,2013-05-13 11:07:00,
2013-05-13 07:12:00,40.9,28.0,29.20,WNW,292,11.0,15.0,59,0.00,,,0.00,Rainwise IP-100,2013-05-13 11:12:00,
2013-05-13 07:17:00,41.2,28.0,29.21,WSW,247,9.0,12.0,59,0.00,,,0.00,Rainwise IP-100,2013-05-13 11:17:00,
2013-05-13 07:22:00,41.2,29.0,29.21,WSW,247,5.0,11.0,60,0.00,,,0.00,Rainwise IP-100,2013-05-13 11:22:00,
2013-05-13 07:27:00,41.1,29.0,29.22,WSW,247,8.0,10.0,60,0.00,,,0.00,Rainwise IP-100,2013-05-13 11:27:00,
2013-05-13 07:33:00,41.2,29.0,29.22,SE,135,2.0,10.0,60,0.00,,,0.00,Rainwise IP-100,2013-05-13 11:33:00,
2013-05-13 07:38:00,41.0,29.0,29.22,SW,225,4.0,13.0,60,0.00,,,0.00,Rainwise IP-100,2013-05-13 11:38:00,
2013-05-13 07:43:00,41.1,29.0,29.23,SW,225,12.0,13.0,60,0.00,,,0.00,Rainwise IP-100,2013-05-13 11:43:00,
2013-05-13 07:48:00,41.2,28.0,29.23,WSW,247,10.0,14.0,59,0.00,,,0.00,Rainwise IP-100,2013-05-13 11:48:00,
2013-05-13 07:53:00,41.1,28.0,29.23,WNW,292,7.0,15.0,59,0.00,,,0.00,Rainwise IP-100,2013-05-13 11:53:00,
2013-05-13 07:58:00,40.9,28.0,29.23,WSW,247,9.0,13.0,58,0.00,,,0.00,Rainwise IP-100,2013-05-13 11:58:00,
2013-05-13 08:03:00,40.8,28.0,29.24,WSW,247,12.0,19.0,58,0.00,,,0.00,Rainwise IP-100,2013-05-13 12:03:00,
2013-05-13 08:08:00,40.8,28.0,29.24,WSW,247,8.0,17.0,57,0.00,,,0.00,Rainwise IP-100,2013-05-13 12:08:00,
2013-05-13 08:14:00,40.8,29.0,29.24,WSW,247,10.0,17.0,60,0.00,,,0.00,Rainwise IP-100,2013-05-13 12:14:00,
2013-05-13 08:19:00,40.7,28.0,29.24,SW,225,6.0,16.0,57,0.00,,,0.00,Rainwise IP-100,2013-05-13 12:19:00,
2013-05-13 08:24:00,40.8,28.0,29.25,SW,225,9.0,17.0,59,0.00,,,0.00,Rainwise IP-100,2013-05-13 12:24:00,
2013-05-13 08:29:00,40.9,28.0,29.25,SW,225,7.0,13.0,59,0.00,,,0.00,Rainwise IP-100,2013-05-13 12:29:00,
2013-05-13 08:34:00,40.9,28.0,29.25,WNW,292,9.0,12.0,57,0.00,,,0.00,Rainwise IP-100,2013-05-13 12:34:00,
2013-05-13 08:39:00,41.0,28.0,29.25,SW,225,7.0,15.0,57,0.00,,,0.00,Rainwise IP-100,2013-05-13 12:39:00,
2013-05-13 08:44:00,41.2,28.0,29.25,SW,225,10.0,17.0,56,0.00,,,0.00,Rainwise IP-100,2013-05-13 12:44:00,
2013-05-13 08:50:00,41.3,26.0,29.25,SW,225,7.0,16.0,55,0.00,,,0.00,Rainwise IP-100,2013-05-13 12:50:00,
2013-05-13 08:55:00,41.4,28.0,29.25,SSE,157,4.0,14.0,56,0.00,,,0.00,Rainwise IP-100,2013-05-13 12:55:00,
2013-05-13 09:00:00,41.6,29.0,29.25,West,270,6.0,12.0,59,0.00,,,0.00,Rainwise IP-100,2013-05-13 13:00:00,
2013-05-13 09:05:00,41.9,28.0,29.25,SW,225,7.0,13.0,55,0.00,,,0.00,Rainwise IP-100,2013-05-13 13:05:00,
2013-05-13 09:10:00,42.3,28.0,29.25,West,270,6.0,15.0,54,0.00,,,0.00,Rainwise IP-100,2013-05-13 13:10:00,
2013-05-13 09:15:00,42.8,29.0,29.26,SW,225,7.0,15.0,56,0.00,,,0.00,Rainwise IP-100,2013-05-13 13:15:00,
2013-05-13 09:20:00,42.6,28.0,29.26,WSW,247,7.0,16.0,54,0.00,,,0.00,Rainwise IP-100,2013-05-13 13:20:00,
2013-05-13 09:25:00,42.6,28.0,29.26,West,270,5.0,16.0,54,0.00,,,0.00,Rainwise IP-100,2013-05-13 13:25:00,
2013-05-13 09:31:00,42.6,28.0,29.26,SW,225,12.0,19.0,54,0.00,,,0.00,Rainwise IP-100,2013-05-13 13:31:00,
2013-05-13 09:35:00,42.9,28.0,29.26,SW,225,12.0,14.0,55,0.00,,,0.00,Rainwise IP-100,2013-05-13 13:35:00,
2013-05-13 09:41:00,42.6,29.0,29.27,SW,225,9.0,15.0,57,0.00,,,0.00,Rainwise IP-100,2013-05-13 13:41:00,
2013-05-13 09:46:00,42.1,29.0,29.27,West,270,4.0,16.0,58,0.00,,,0.00,Rainwise IP-100,2013-05-13 13:46:00,
2013-05-13 09:51:00,42.1,28.0,29.27,SW,225,9.0,17.0,57,0.00,,,0.00,Rainwise IP-100,2013-05-13 13:51:00,
2013-05-13 09:56:00,42.1,28.0,29.27,SW,225,8.0,16.0,57,0.00,,,0.00,Rainwise IP-100,2013-05-13 13:56:00,
2013-05-13 10:01:00,42.0,28.0,29.27,SSW,202,6.0,13.0,57,0.00,,,0.00,Rainwise IP-100,2013-05-13 14:01:00,
2013-05-13 10:06:00,42.7,29.0,29.27,NW,315,12.0,15.0,57,0.00,,,0.00,Rainwise IP-100,2013-05-13 14:06:00,
2013-05-13 10:11:00,42.4,28.0,29.28,WSW,247,5.0,15.0,56,0.00,,,0.00,Rainwise IP-100,2013-05-13 14:11:00,
2013-05-13 10:16:00,42.5,29.0,29.28,SW,225,7.0,15.0,56,0.00,,,0.00,Rainwise IP-100,2013-05-13 14:16:00,
2013-05-13 10:22:00,42.5,28.0,29.28,WNW,292,13.0,17.0,52,0.00,,,0.00,Rainwise IP-100,2013-05-13 14:22:00,
2013-05-13 10:27:00,42.9,28.0,29.28,WNW,292,3.0,9.0,52,0.00,,,0.00,Rainwise IP-100,2013-05-13 14:27:00,
2013-05-13 10:32:00,43.5,28.0,29.28,West,270,13.0,15.0,52,0.00,,,0.00,Rainwise IP-100,2013-05-13 14:32:00,
2013-05-13 10:37:00,43.6,28.0,29.28,SSW,202,5.0,15.0,53,0.00,,,0.00,Rainwise IP-100,2013-05-13 14:37:00,
2013-05-13 10:42:00,43.8,28.0,29.29,SW,225,9.0,19.0,52,0.00,,,0.00,Rainwise IP-100,2013-05-13 14:42:00,
2013-05-13 10:47:00,43.9,28.0,29.29,SW,225,6.0,13.0,52,0.00,,,0.00,Rainwise IP-100,2013-05-13 14:47:00,
2013-05-13 10:52:00,44.2,29.0,29.29,West,270,7.0,16.0,54,0.00,,,0.00,Rainwise IP-100,2013-05-13 14:52:00,
2013-05-13 10:58:00,44.1,28.0,29.29,WSW,247,6.0,20.0,53,0.00,,,0.00,Rainwise IP-100,2013-05-13 14:58:00,
2013-05-13 11:03:00,44.3,28.0,29.29,SW,225,8.0,13.0,52,0.00,,,0.00,Rainwise IP-100,2013-05-13 15:03:00,
2013-05-13 11:08:00,44.5,29.0,29.30,WSW,247,11.0,15.0,54,0.00,,,0.00,Rainwise IP-100,2013-05-13 15:08:00,
2013-05-13 11:13:00,44.3,28.0,29.30,WSW,247,7.0,13.0,52,0.00,,,0.00,Rainwise IP-100,2013-05-13 15:13:00,
2013-05-13 11:18:00,44.6,29.0,29.30,WSW,247,11.0,16.0,52,0.00,,,0.00,Rainwise IP-100,2013-05-13 15:18:00,
2013-05-13 11:23:00,45.4,29.0,29.30,WSW,247,6.0,15.0,52,0.00,,,0.00,Rainwise IP-100,2013-05-13 15:23:00,
2013-05-13 11:28:00,45.6,29.0,29.30,SW,225,6.0,14.0,53,0.00,,,0.00,Rainwise IP-100,2013-05-13 15:28:00,
2013-05-13 11:33:00,45.2,28.0,29.31,WSW,247,10.0,10.0,51,0.00,,,0.00,Rainwise IP-100,2013-05-13 15:33:00,
2013-05-13 11:39:00,45.3,29.0,29.31,WSW,247,15.0,15.0,52,0.00,,,0.00,Rainwise IP-100,2013-05-13 15:39:00,
2013-05-13 11:44:00,44.7,28.0,29.31,SW,225,10.0,17.0,51,0.00,,,0.00,Rainwise IP-100,2013-05-13 15:44:00,
2013-05-13 11:49:00,44.5,29.0,29.31,WSW,247,11.0,16.0,53,0.00,,,0.00,Rainwise IP-100,2013-05-13 15:49:00,
2013-05-13 11:54:00,44.6,28.0,29.31,South,180,8.0,16.0,51,0.00,,,0.00,Rainwise IP-100,2013-05-13 15:54:00,
2013-05-13 11:59:00,45.1,28.0,29.30,WSW,247,5.0,14.0,50,0.00,,,0.00,Rainwise IP-100,2013-05-13 15:59:00,
2013-05-13 12:04:00,45.1,28.0,29.31,SW,225,9.0,16.0,49,0.00,,,0.00,Rainwise IP-100,2013-05-13 16:04:00,
2013-05-13 12:09:00,45.6,29.0,29.31,South,180,5.0,13.0,53,0.00,,,0.00,Rainwise IP-100,2013-05-13 16:09:00,
2013-05-13 12:15:00,46.4,29.0,29.31,WSW,247,12.0,15.0,52,0.00,,,0.00,Rainwise IP-100,2013-05-13 16:15:00,
2013-05-13 12:20:00,45.1,28.0,29.31,SW,225,9.0,15.0,50,0.00,,,0.00,Rainwise IP-100,2013-05-13 16:20:00,
2013-05-13 12:25:00,45.3,28.0,29.31,SW,225,7.0,15.0,51,0.00,,,0.00,Rainwise IP-100,2013-05-13 16:25:00,
2013-05-13 12:30:00,45.2,26.0,29.31,SW,225,7.0,21.0,48,0.00,,,0.00,Rainwise IP-100,2013-05-13 16:30:00,
2013-05-13 12:35:00,45.2,26.0,29.31,SW,225,6.0,13.0,48,0.00,,,0.00,Rainwise IP-100,2013-05-13 16:35:00,
2013-05-13 12:40:00,45.2,28.0,29.31,West,270,9.0,16.0,49,0.00,,,0.00,Rainwise IP-100,2013-05-13 16:40:00,
2013-05-13 12:45:00,44.9,28.0,29.31,West,270,6.0,13.0,50,0.00,,,0.00,Rainwise IP-100,2013-05-13 16:45:00,
2013-05-13 12:50:00,45.6,28.0,29.31,SW,225,10.0,15.0,48,0.00,,,0.00,Rainwise IP-100,2013-05-13 16:50:00,
2013-05-13 12:56:00,45.5,28.0,29.31,West,270,13.0,16.0,48,0.00,,,0.00,Rainwise IP-100,2013-05-13 16:56:00,
2013-05-13 13:01:00,45.9,28.0,29.31,SW,225,12.0,17.0,49,0.00,,,0.00,Rainwise IP-100,2013-05-13 17:01:00,
2013-05-13 13:06:00,46.0,28.0,29.31,SW,225,11.0,15.0,47,0.00,,,0.00,Rainwise IP-100,2013-05-13 17:06:00,
2013-05-13 13:11:00,46.4,26.0,29.31,WSW,247,6.0,17.0,45,0.00,,,0.00,Rainwise IP-100,2013-05-13 17:11:00,
2013-05-13 13:16:00,46.7,28.0,29.31,SW,225,12.0,13.0,48,0.00,,,0.00,Rainwise IP-100,2013-05-13 17:16:00,
2013-05-13 13:21:00,46.3,28.0,29.31,WSW,247,7.0,14.0,47,0.00,,,0.00,Rainwise IP-100,2013-05-13 17:21:00,
2013-05-13 13:26:00,46.2,28.0,29.31,West,270,9.0,15.0,47,0.00,,,0.00,Rainwise IP-100,2013-05-13 17:26:00,
2013-05-13 13:32:00,46.8,29.0,29.31,SSW,202,10.0,10.0,49,0.00,,,0.00,Rainwise IP-100,2013-05-13 17:32:00,
2013-05-13 13:37:00,47.9,31.0,29.31,West,270,13.0,13.0,49,0.00,,,0.00,Rainwise IP-100,2013-05-13 17:37:00,
2013-05-13 13:42:00,47.1,28.0,29.31,SSW,202,8.0,17.0,47,0.00,,,0.00,Rainwise IP-100,2013-05-13 17:42:00,
2013-05-13 13:47:00,47.4,31.0,29.31,SW,225,8.0,18.0,50,0.00,,,0.00,Rainwise IP-100,2013-05-13 17:47:00,
2013-05-13 13:52:00,48.9,29.0,29.31,WNW,292,7.0,13.0,45,0.00,,,0.00,Rainwise IP-100,2013-05-13 17:52:00,
2013-05-13 13:57:00,50.0,31.0,29.32,SW,225,16.0,16.0,48,0.00,,,0.00,Rainwise IP-100,2013-05-13 17:57:00,
2013-05-13 14:02:00,48.8,29.0,29.32,West,270,12.0,20.0,47,0.00,,,0.00,Rainwise IP-100,2013-05-13 18:02:00,
2013-05-13 14:07:00,49.4,29.0,29.32,WNW,292,7.0,14.0,45,0.00,,,0.00,Rainwise IP-100,2013-05-13 18:07:00,
2013-05-13 14:13:00,50.2,29.0,29.32,SW,225,12.0,14.0,44,0.00,,,0.00,Rainwise IP-100,2013-05-13 18:13:00,
2013-05-13 14:18:00,49.4,28.0,29.32,SSW,202,7.0,21.0,42,0.00,,,0.00,Rainwise IP-100,2013-05-13 18:18:00,
2013-05-13 14:23:00,49.7,29.0,29.32,SW,225,12.0,14.0,44,0.00,,,0.00,Rainwise IP-100,2013-05-13 18:23:00,
2013-05-13 14:28:00,48.7,28.0,29.32,SW,225,10.0,16.0,42,0.00,,,0.00,Rainwise IP-100,2013-05-13 18:28:00,
2013-05-13 14:33:00,48.5,28.0,29.32,NW,315,11.0,15.0,43,0.00,,,0.00,Rainwise IP-100,2013-05-13 18:33:00,
2013-05-13 14:38:00,48.3,28.0,29.32,WSW,247,8.0,16.0,44,0.00,,,0.00,Rainwise IP-100,2013-05-13 18:38:00,
2013-05-13 14:43:00,48.2,28.0,29.32,SW,225,7.0,15.0,43,0.00,,,0.00,Rainwise IP-100,2013-05-13 18:43:00,
2013-05-13 14:49:00,48.7,28.0,29.32,West,270,11.0,14.0,43,0.00,,,0.00,Rainwise IP-100,2013-05-13 18:49:00,
2013-05-13 14:54:00,48.9,29.0,29.31,SSW,202,5.0,15.0,45,0.00,,,0.00,Rainwise IP-100,2013-05-13 18:54:00,
2013-05-13 14:59:00,48.8,29.0,29.31,West,270,3.0,15.0,46,0.00,,,0.00,Rainwise IP-100,2013-05-13 18:59:00,
2013-05-13 15:04:00,49.2,28.0,29.31,SW,225,5.0,10.0,43,0.00,,,0.00,Rainwise IP-100,2013-05-13 19:04:00,
2013-05-13 15:09:00,48.8,29.0,29.31,West,270,9.0,11.0,45,0.00,,,0.00,Rainwise IP-100,2013-05-13 19:09:00,
2013-05-13 15:14:00,48.2,26.0,29.31,West,270,10.0,13.0,42,0.00,,,0.00,Rainwise IP-100,2013-05-13 19:14:00,
2013-05-13 15:19:00,48.1,28.0,29.31,SW,225,9.0,19.0,43,0.00,,,0.00,Rainwise IP-100,2013-05-13 19:19:00,
2013-05-13 15:24:00,48.2,26.0,29.31,WSW,247,7.0,12.0,42,0.00,,,0.00,Rainwise IP-100,2013-05-13 19:24:00,
2013-05-13 15:30:00,48.3,26.0,29.31,West,270,15.0,16.0,42,0.00,,,0.00,Rainwise IP-100,2013-05-13 19:30:00,
2013-05-13 15:35:00,48.9,28.0,29.31,South,180,6.0,13.0,42,0.00,,,0.00,Rainwise IP-100,2013-05-13 19:35:00,
2013-05-13 15:40:00,48.4,28.0,29.31,West,270,2.0,13.0,44,0.00,,,0.00,Rainwise IP-100,2013-05-13 19:40:00,
2013-05-13 15:45:00,48.2,28.0,29.31,SSW,202,6.0,16.0,43,0.00,,,0.00,Rainwise IP-100,2013-05-13 19:45:00,
2013-05-13 15:50:00,47.8,28.0,29.31,SW,225,11.0,14.0,43,0.00,,,0.00,Rainwise IP-100,2013-05-13 19:50:00,
2013-05-13 15:55:00,47.7,26.0,29.31,WNW,292,7.0,13.0,42,0.00,,,0.00,Rainwise IP-100,2013-05-13 19:55:00,
2013-05-13 16:00:00,47.7,26.0,29.31,WNW,292,8.0,19.0,42,0.00,,,0.00,Rainwise IP-100,2013-05-13 20:00:00,
2013-05-13 16:06:00,47.8,28.0,29.31,SW,225,6.0,18.0,43,0.00,,,0.00,Rainwise IP-100,2013-05-13 20:06:00,
2013-05-13 16:11:00,48.1,28.0,29.31,WSW,247,13.0,13.0,43,0.00,,,0.00,Rainwise IP-100,2013-05-13 20:11:00,
2013-05-13 16:16:00,48.2,28.0,29.31,WSW,247,6.0,12.0,44,0.00,,,0.00,Rainwise IP-100,2013-05-13 20:16:00,
2013-05-13 16:21:00,47.9,26.0,29.31,West,270,4.0,13.0,40,0.00,,,0.00,Rainwise IP-100,2013-05-13 20:21:00,
2013-05-13 16:26:00,47.8,28.0,29.31,NW,315,6.0,15.0,43,0.00,,,0.00,Rainwise IP-100,2013-05-13 20:26:00,
2013-05-13 16:31:00,47.7,28.0,29.31,SW,225,7.0,16.0,45,0.00,,,0.00,Rainwise IP-100,2013-05-13 20:31:00,
2013-05-13 16:36:00,47.7,26.0,29.31,NNW,337,8.0,16.0,43,0.00,,,0.00,Rainwise IP-100,2013-05-13 20:36:00,
2013-05-13 16:41:00,47.1,26.0,29.31,WNW,292,6.0,17.0,45,0.00,,,0.00,Rainwise IP-100,2013-05-13 20:41:00,
2013-05-13 16:47:00,46.9,26.0,29.31,WSW,247,15.0,15.0,45,0.00,,,0.00,Rainwise IP-100,2013-05-13 20:47:00,
2013-05-13 16:52:00,46.9,28.0,29.31,NW,315,5.0,13.0,46,0.00,,,0.00,Rainwise IP-100,2013-05-13 20:52:00,
2013-05-13 16:57:00,46.8,26.0,29.31,SSW,202,10.0,18.0,43,0.00,,,0.00,Rainwise IP-100,2013-05-13 20:57:00,
2013-05-13 17:02:00,46.7,28.0,29.31,WSW,247,7.0,16.0,47,0.00,,,0.00,Rainwise IP-100,2013-05-13 21:02:00,
2013-05-13 17:07:00,46.7,28.0,29.31,WSW,247,12.0,17.0,47,0.00,,,0.00,Rainwise IP-100,2013-05-13 21:07:00,
2013-05-13 17:12:00,47.2,26.0,29.31,WSW,247,12.0,16.0,43,0.00,,,0.00,Rainwise IP-100,2013-05-13 21:12:00,
2013-05-13 17:17:00,47.4,28.0,29.31,WSW,247,12.0,15.0,45,0.00,,,0.00,Rainwise IP-100,2013-05-13 21:17:00,
2013-05-13 17:23:00,47.8,29.0,29.31,WSW,247,9.0,14.0,46,0.00,,,0.00,Rainwise IP-100,2013-05-13 21:23:00,
2013-05-13 17:28:00,47.9,28.0,29.31,West,270,10.0,13.0,45,0.00,,,0.00,Rainwise IP-100,2013-05-13 21:28:00,
2013-05-13 17:33:00,47.8,29.0,29.31,SW,225,6.0,13.0,46,0.00,,,0.00,Rainwise IP-100,2013-05-13 21:33:00,
2013-05-13 17:38:00,47.8,29.0,29.31,WNW,292,6.0,15.0,48,0.00,,,0.00,Rainwise IP-100,2013-05-13 21:38:00,
2013-05-13 17:43:00,47.5,29.0,29.31,WSW,247,6.0,13.0,48,0.00,,,0.00,Rainwise IP-100,2013-05-13 21:43:00,
2013-05-13 17:48:00,47.5,28.0,29.31,NW,315,13.0,13.0,46,0.00,,,0.00,Rainwise IP-100,2013-05-13 21:48:00,
2013-05-13 17:53:00,47.3,29.0,29.31,SW,225,7.0,14.0,47,0.00,,,0.00,Rainwise IP-100,2013-05-13 21:53:00,
2013-05-13 17:58:00,47.2,28.0,29.31,WSW,247,8.0,10.0,46,0.00,,,0.00,Rainwise IP-100,2013-05-13 21:58:00,
2013-05-13 18:04:00,47.2,28.0,29.31,SW,225,10.0,13.0,46,0.00,,,0.00,Rainwise IP-100,2013-05-13 22:04:00,
2013-05-13 18:09:00,47.1,28.0,29.31,WSW,247,7.0,11.0,46,0.00,,,0.00,Rainwise IP-100,2013-05-13 22:09:00,
2013-05-13 18:14:00,46.6,28.0,29.31,WNW,292,13.0,13.0,48,0.00,,,0.00,Rainwise IP-100,2013-05-13 22:14:00,
2013-05-13 18:16:00,46.4,28.0,29.31,NW,315,9.0,13.0,47,0.00,,,0.00,Rainwise IP-100,2013-05-13 22:16:00,
2013-05-13 18:21:00,46.6,28.0,29.31,WSW,247,9.0,13.0,48,0.00,,,0.00,Rainwise IP-100,2013-05-13 22:21:00,
2013-05-13 18:27:00,47.6,29.0,29.31,WSW,247,11.0,15.0,47,0.00,,,0.00,Rainwise IP-100,2013-05-13 22:27:00,
2013-05-13 18:32:00,47.9,29.0,29.31,WSW,247,7.0,17.0,46,0.00,,,0.00,Rainwise IP-100,2013-05-13 22:32:00,
2013-05-13 18:37:00,48.3,28.0,29.31,WSW,247,8.0,12.0,45,0.00,,,0.00,Rainwise IP-100,2013-05-13 22:37:00,
2013-05-13 18:42:00,47.5,28.0,29.31,SW,225,8.0,13.0,46,0.00,,,0.00,Rainwise IP-100,2013-05-13 22:42:00,
2013-05-13 18:47:00,46.7,28.0,29.31,West,270,6.0,15.0,46,0.00,,,0.00,Rainwise IP-100,2013-05-13 22:47:00,
2013-05-13 18:52:00,45.9,28.0,29.31,WNW,292,9.0,12.0,47,0.00,,,0.00,Rainwise IP-100,2013-05-13 22:52:00,
2013-05-13 18:57:00,45.5,28.0,29.31,West,270,5.0,10.0,49,0.00,,,0.00,Rainwise IP-100,2013-05-13 22:57:00,
2013-05-13 19:02:00,45.3,28.0,29.31,WNW,292,1.0,12.0,51,0.00,,,0.00,Rainwise IP-100,2013-05-13 23:02:00,
2013-05-13 19:08:00,45.2,29.0,29.31,WSW,247,2.0,9.0,52,0.00,,,0.00,Rainwise IP-100,2013-05-13 23:08:00,
2013-05-13 19:13:00,45.2,28.0,29.32,SW,225,7.0,8.0,51,0.00,,,0.00,Rainwise IP-100,2013-05-13 23:13:00,
2013-05-13 19:18:00,45.2,29.0,29.31,NW,315,6.0,9.0,53,0.00,,,0.00,Rainwise IP-100,2013-05-13 23:18:00,
2013-05-13 19:23:00,45.1,29.0,29.32,West,270,5.0,10.0,52,0.00,,,0.00,Rainwise IP-100,2013-05-13 23:23:00,
2013-05-13 19:28:00,44.9,29.0,29.32,West,270,4.0,9.0,52,0.00,,,0.00,Rainwise IP-100,2013-05-13 23:28:00,
2013-05-13 19:33:00,44.9,29.0,29.32,West,270,5.0,8.0,54,0.00,,,0.00,Rainwise IP-100,2013-05-13 23:33:00,
2013-05-13 19:38:00,44.8,31.0,29.32,West,270,5.0,6.0,55,0.00,,,0.00,Rainwise IP-100,2013-05-13 23:38:00,
2013-05-13 19:44:00,44.7,29.0,29.32,WSW,247,5.0,8.0,54,0.00,,,0.00,Rainwise IP-100,2013-05-13 23:44:00,
2013-05-13 19:49:00,44.6,31.0,29.32,WNW,292,2.0,7.0,55,0.00,,,0.00,Rainwise IP-100,2013-05-13 23:49:00,
2013-05-13 19:54:00,44.5,31.0,29.33,SSW,202,3.0,10.0,55,0.00,,,0.00,Rainwise IP-100,2013-05-13 23:54:00,
2013-05-13 19:59:00,44.4,29.0,29.32,West,270,4.0,10.0,55,0.00,,,0.00,Rainwise IP-100,2013-05-13 23:59:00,
2013-05-13 20:04:00,44.2,29.0,29.32,WNW,292,7.0,7.0,56,0.00,,,0.00,Rainwise IP-100,2013-05-14 00:04:00,
2013-05-13 20:09:00,44.1,31.0,29.32,NW,315,5.0,10.0,57,0.00,,,0.00,Rainwise IP-100,2013-05-14 00:09:00,
2013-05-13 20:14:00,44.3,29.0,29.33,WNW,292,3.0,10.0,55,0.00,,,0.00,Rainwise IP-100,2013-05-14 00:14:00,
2013-05-13 20:19:00,44.2,29.0,29.33,West,270,4.0,7.0,56,0.00,,,0.00,Rainwise IP-100,2013-05-14 00:19:00,
2013-05-13 20:25:00,44.0,31.0,29.32,NW,315,3.0,8.0,57,0.00,,,0.00,Rainwise IP-100,2013-05-14 00:25:00,
2013-05-13 20:30:00,43.6,31.0,29.33,West,270,2.0,6.0,59,0.00,,,0.00,Rainwise IP-100,2013-05-14 00:30:00,
2013-05-13 20:35:00,43.5,31.0,29.33,WSW,247,2.0,6.0,59,0.00,,,0.00,Rainwise IP-100,2013-05-14 00:35:00,
2013-05-13 20:40:00,43.3,31.0,29.33,NW,315,3.0,5.0,60,0.00,,,0.00,Rainwise IP-100,2013-05-14 00:40:00,
2013-05-13 20:45:00,42.9,31.0,29.33,NW,315,0.0,4.0,61,0.00,,,0.00,Rainwise IP-100,2013-05-14 00:45:00,
2013-05-13 20:50:00,42.4,32.0,29.33,NW,315,0.0,0.0,65,0.00,,,0.00,Rainwise IP-100,2013-05-14 00:50:00,
2013-05-13 20:55:00,41.9,32.0,29.33,West,270,0.0,3.0,68,0.00,,,0.00,Rainwise IP-100,2013-05-14 00:55:00,
2013-05-13 21:01:00,41.2,33.0,29.33,West,270,1.0,2.0,72,0.00,,,0.00,Rainwise IP-100,2013-05-14 01:01:00,
2013-05-13 21:06:00,40.5,33.0,29.34,West,270,0.0,2.0,73,0.00,,,0.00,Rainwise IP-100,2013-05-14 01:06:00,
2013-05-13 21:11:00,40.1,33.0,29.33,West,270,1.0,2.0,77,0.00,,,0.00,Rainwise IP-100,2013-05-14 01:11:00,
2013-05-13 21:16:00,39.9,33.0,29.34,West,270,0.0,2.0,75,0.00,,,0.00,Rainwise IP-100,2013-05-14 01:16:00,
2013-05-13 21:21:00,39.8,33.0,29.34,West,270,0.0,0.0,75,0.00,,,0.00,Rainwise IP-100,2013-05-14 01:21:00,
2013-05-13 21:26:00,39.6,33.0,29.34,West,270,0.0,0.0,74,0.00,,,0.00,Rainwise IP-100,2013-05-14 01:26:00,
2013-05-13 21:31:00,39.6,35.0,29.35,NE,45,0.0,2.0,78,0.00,,,0.00,Rainwise IP-100,2013-05-14 01:31:00,
2013-05-13 21:36:00,39.5,33.0,29.35,NE,45,0.0,0.0,77,0.00,,,0.00,Rainwise IP-100,2013-05-14 01:36:00,
2013-05-13 21:42:00,39.9,33.0,29.35,East,90,0.0,3.0,74,0.00,,,0.00,Rainwise IP-100,2013-05-14 01:42:00,
2013-05-13 21:47:00,40.2,33.0,29.35,NE,45,3.0,5.0,75,0.00,,,0.00,Rainwise IP-100,2013-05-14 01:47:00,
2013-05-13 21:52:00,40.3,33.0,29.36,NE,45,0.0,4.0,76,0.00,,,0.00,Rainwise IP-100,2013-05-14 01:52:00,
2013-05-13 21:57:00,39.8,33.0,29.36,NE,45,0.0,0.0,76,0.00,,,0.00,Rainwise IP-100,2013-05-14 01:57:00,
2013-05-13 22:02:00,39.7,33.0,29.36,NE,45,0.0,0.0,77,0.00,,,0.00,Rainwise IP-100,2013-05-14 02:02:00,
2013-05-13 22:07:00,39.6,33.0,29.36,SSW,202,0.0,3.0,76,0.00,,,0.00,Rainwise IP-100,2013-05-14 02:07:00,
2013-05-13 22:12:00,39.5,35.0,29.36,SW,225,0.0,0.0,78,0.00,,,0.00,Rainwise IP-100,2013-05-14 02:12:00,
2013-05-13 22:18:00,39.4,35.0,29.37,WNW,292,0.0,4.0,82,0.00,,,0.00,Rainwise IP-100,2013-05-14 02:18:00,
2013-05-13 22:23:00,39.2,33.0,29.37,WNW,292,0.0,0.0,81,0.00,,,0.00,Rainwise IP-100,2013-05-14 02:23:00,
2013-05-13 22:28:00,38.9,35.0,29.37,WNW,292,0.0,0.0,82,0.00,,,0.00,Rainwise IP-100,2013-05-14 02:28:00,
2013-05-13 22:33:00,38.8,35.0,29.37,WNW,292,1.0,3.0,85,0.00,,,0.00,Rainwise IP-100,2013-05-14 02:33:00,
2013-05-13 22:38:00,38.8,36.0,29.37,WNW,292,2.0,3.0,86,0.00,,,0.00,Rainwise IP-100,2013-05-14 02:38:00,
2013-05-13 22:43:00,38.8,35.0,29.37,West,270,1.0,4.0,85,0.00,,,0.00,Rainwise IP-100,2013-05-14 02:43:00,
2013-05-13 22:48:00,39.2,35.0,29.36,SW,225,2.0,6.0,83,0.00,,,0.00,Rainwise IP-100,2013-05-14 02:48:00,
2013-05-13 22:53:00,39.5,35.0,29.36,WSW,247,2.0,5.0,81,0.00,,,0.00,Rainwise IP-100,2013-05-14 02:53:00,
2013-05-13 22:59:00,39.8,35.0,29.36,WSW,247,2.0,3.0,80,0.00,,,0.00,Rainwise IP-100,2013-05-14 02:59:00,
2013-05-13 23:04:00,39.9,35.0,29.36,WSW,247,4.0,5.0,79,0.00,,,0.00,Rainwise IP-100,2013-05-14 03:04:00,
2013-05-13 23:09:00,39.9,35.0,29.35,WSW,247,1.0,5.0,79,0.00,,,0.00,Rainwise IP-100,2013-05-14 03:09:00,
2013-05-13 23:14:00,39.6,35.0,29.35,WSW,247,3.0,4.0,79,0.00,,,0.00,Rainwise IP-100,2013-05-14 03:14:00,
2013-05-13 23:19:00,39.6,35.0,29.35,WSW,247,1.0,4.0,78,0.00,,,0.00,Rainwise IP-100,2013-05-14 03:19:00,
2013-05-13 23:24:00,39.4,33.0,29.35,WSW,247,0.0,1.0,78,0.00,,,0.00,Rainwise IP-100,2013-05-14 03:24:00,
2013-05-13 23:29:00,39.2,33.0,29.35,NE,45,1.0,3.0,78,0.00,,,0.00,Rainwise IP-100,2013-05-14 03:29:00,
2013-05-13 23:35:00,38.8,33.0,29.35,NE,45,0.0,2.0,80,0.00,,,0.00,Rainwise IP-100,2013-05-14 03:35:00,
2013-05-13 23:40:00,38.6,35.0,29.35,NE,45,0.0,0.0,84,0.00,,,0.00,Rainwise IP-100,2013-05-14 03:40:00,
2013-05-13 23:45:00,38.4,33.0,29.35,NE,45,0.0,0.0,84,0.00,,,0.00,Rainwise IP-100,2013-05-14 03:45:00,
2013-05-13 23:50:00,38.2,35.0,29.35,NE,45,0.0,0.0,85,0.00,,,0.00,Rainwise IP-100,2013-05-14 03:50:00,
2013-05-13 23:55:00,38.1,35.0,29.35,SW,225,1.0,4.0,86,0.00,,,0.00,Rainwise IP-100,2013-05-14 03:55:00,